User: anonymous   Login
Location: Elstree
(51.6403°N, 0.2969°W)
Time: 17:53:40
(UTC+00:00)
Language:

Cosmos 1066 Rocket - Orbit

View from above orbital plane
View from above orbital plane
View from above satellite
View from above satellite

Ground track
Ground track

The orbit data is extracted from the following two-line orbital elements,

1 11166U 78121B   21129.25126635  .00000057  00000-0  22570-4 0  9991
2 11166  81.2414 228.9626 0066670 173.6257 186.5781 14.13775226184667
Epoch (UTC): 09 May 2021 06:01:49
Eccentricity: 0.0066670
inclination: 81.2414°
perigee height: 798 km
apogee height: 894 km
right ascension of ascending node: 228.9626°
argument of perigee: 173.6257°
revolutions per day: 14.13775226
mean anomaly at epoch: 186.5781°
orbit number at epoch: 18466

The dashed part of the orbit path shows where the satellite is in the earth's shadow,  

DLR